Location: Bright Sky Observatory
(40.7821°N, 74.2425°W)
Time: 08:25:27
(UTC-04:00)

Amateur Radio Satellites - All Passes

Search period start: 23 October 2014 07:55
Search period end: 24 October 2014 07:55
Location: Bright Sky Observatory, 40.7821°N, 74.2425°W

Satellite Date Start Highest point End Downlink Frequencies (MHz)
Time Altitude Azimuth
HO-68 23 Oct 08:18:40 08:20:57 12° 87° (E) 08:23:14 435.675 MHz FM
Saudisat 1A 23 Oct 08:27:47 08:32:10 86° 303° (WNW) 08:36:36 436.775 MHz
SO-67 23 Oct 08:28:11 08:31:29 43° 286° (WNW) 08:34:45 435.3500 MHz FM
JAS-2 23 Oct 08:46:58 08:51:09 16° 305° (NW) 08:55:25 435.800 - 435.900 CW/SSB, 435.910 FM
Oscar 11 23 Oct 09:38:58 09:41:23 15° 92° (E) 09:43:48 145.825 FM, Beacon 2401.500 USB
HO-68 23 Oct 10:02:32 10:09:46 75° 105° (ESE) 10:16:56 435.675 MHz FM
RS-15 23 Oct 10:05:14 10:13:40 26° 258° (WSW) 10:22:25 29.354 - 29.394 USB, Beacon 29.352 USB
Saudisat 1A 23 Oct 10:10:20 10:12:25 13° 322° (NW) 10:14:31 436.775 MHz
PANSAT 23 Oct 10:18:24 10:20:12 13° 181° (S) 10:22:01 not established
MaSat-1 23 Oct 10:18:36 10:21:03 35° 249° (WSW) 10:23:18 437.345 MHz
ZACube-1 23 Oct 10:22:41 10:25:40 18° 93° (E) 10:28:36 437.345 MHz
UKube-1 23 Oct 10:30:21 10:34:41 59° 101° (ESE) 10:38:59 145.840 MHz, 145.915 MHz
FUNcube-1 23 Oct 11:06:56 11:11:10 58° 100° (E) 11:15:17 145.950 - 145.970 MHz USB
Oscar 11 23 Oct 11:13:41 11:17:49 47° 287° (WNW) 11:21:56 145.825 FM, Beacon 2401.500 USB
Sapphire 23 Oct 11:50:20 11:52:36 12° 38° (NE) 11:54:51 437.095 MHz 1200 baud AX-25 AFSK
HO-68 23 Oct 11:51:28 11:56:44 23° 303° (WNW) 12:01:59 435.675 MHz FM
ZACube-1 23 Oct 11:58:17 12:02:12 36° 289° (WNW) 12:06:02 437.345 MHz
Oscar 19 23 Oct 12:01:24 12:01:53 10° 58° (ENE) 12:02:22 437.125 CW, 437.150 USB
JAS-1B 23 Oct 12:05:42 12:07:23 11° 56° (ENE) 12:09:03 435.800 - 435.900 CW/SSB
UKube-1 23 Oct 12:08:13 12:10:22 14° 298° (WNW) 12:12:30 145.840 MHz, 145.915 MHz
PCSat 23 Oct 12:12:06 12:15:51 19° 44° (NE) 12:19:35 145.825 MHz
KITSAT 1 23 Oct 12:24:29 12:32:17 56° 113° (ESE) 12:40:08 435.175 FM
ISS 23 Oct 12:25:32 12:27:19 14° 130° (SE) 12:29:07 145.800 FM
Oscar 16 23 Oct 12:42:35 12:46:49 26° 66° (ENE) 12:51:03 437.025 USB, Beacon 2401.1428
FUNcube-1 23 Oct 12:45:09 12:47:01 13° 297° (WNW) 12:48:52 145.950 - 145.970 MHz USB
AO-Echo 23 Oct 12:52:33 12:55:26 16° 61° (ENE) 12:58:22 ?
Uribyol 2 23 Oct 13:00:16 13:03:35 17° 62° (ENE) 13:06:54 436.500 FM
ITAMSAT 1 23 Oct 13:05:42 13:09:09 18° 62° (ENE) 13:12:37 435.822 SSB
Gurwin Techsat 1B 23 Oct 13:17:31 13:19:33 12° 58° (ENE) 13:21:35 435.225 FM
TMSAT-1 23 Oct 13:30:06 13:31:54 12° 58° (ENE) 13:33:41 436.925 FM
Sapphire 23 Oct 13:31:41 13:37:07 65° 59° (ENE) 13:42:29 437.095 MHz 1200 baud AX-25 AFSK
Oscar 19 23 Oct 13:35:12 13:40:21 79° 75° (ENE) 13:45:30 437.125 CW, 437.150 USB
SO-50 23 Oct 13:41:47 13:46:16 89° 122° (ESE) 13:50:54 436.795 FM
AO-27 23 Oct 13:49:04 13:54:00 45° 70° (ENE) 13:58:57 436.795 MHz FM
JAS-1B 23 Oct 13:51:09 13:57:15 86° 75° (ENE) 14:02:57 435.800 - 435.900 CW/SSB
PCSat 23 Oct 13:54:27 13:59:53 77° 243° (WSW) 14:05:17 145.825 MHz
ISS 23 Oct 14:00:20 14:03:39 66° 326° (NW) 14:06:58 145.800 FM
Oscar 10/S400 23 Oct 14:13:47 14:31:30 41° 155° (SSE) 14:56:09 145.825 - 145.975 CW/USB, Beacon 145.810 USB
KITSAT 1 23 Oct 14:20:38 14:28:00 37° 314° (NW) 14:35:24 435.175 FM
Oscar 16 23 Oct 14:21:11 14:25:58 38° 262° (W) 14:30:46 437.025 USB, Beacon 2401.1428
AO-Echo 23 Oct 14:28:49 14:33:37 63° 259° (W) 14:38:37 ?
AO-7 23 Oct 14:33:57 14:39:59 23° 53° (NE) 14:46:01 29.400 - 29.500 MHz
Uribyol 2 23 Oct 14:37:21 14:42:31 63° 258° (WSW) 14:47:44 436.500 FM
ITAMSAT 1 23 Oct 14:43:01 14:48:09 59° 259° (W) 14:53:20 435.822 SSB
Gurwin Techsat 1B 23 Oct 14:53:24 14:58:42 89° 77° (ENE) 15:04:04 435.225 FM
TMSAT-1 23 Oct 15:05:40 15:10:58 86° 76° (ENE) 15:16:19 436.925 FM
UOSAT-12 23 Oct 15:13:55 15:18:31 71° 120° (ESE) 15:23:14 437.025 FM, 437.400 FM
Sapphire 23 Oct 15:16:32 15:19:57 17° 256° (WSW) 15:23:22 437.095 MHz 1200 baud AX-25 AFSK
Saudisat 1A 23 Oct 15:17:20 15:18:43 11° 36° (NE) 15:20:05 436.775 MHz
Oscar 19 23 Oct 15:18:24 15:20:15 12° 271° (W) 15:22:06 437.125 CW, 437.150 USB
SO-50 23 Oct 15:24:59 15:27:31 15° 322° (NW) 15:30:06 436.795 FM
AO-27 23 Oct 15:29:42 15:33:41 22° 266° (W) 15:37:43 436.795 MHz FM
ISS 23 Oct 15:38:32 15:40:50 17° 344° (NNW) 15:43:09 145.800 FM
JAS-1B 23 Oct 15:47:20 15:48:38 11° 270° (W) 15:49:55 435.800 - 435.900 CW/SSB
Uosat F 23 Oct 16:12:14 16:17:07 56° 72° (ENE) 16:22:03 435.120 FM
KITSAT 1 23 Oct 16:22:45 16:26:13 13° 341° (NNW) 16:29:41 435.175 FM
AO-7 23 Oct 16:23:32 16:31:49 84° 252° (WSW) 16:40:09 29.400 - 29.500 MHz
Gurwin Techsat 1B 23 Oct 16:38:22 16:39:21 11° 272° (W) 16:40:21 435.225 FM
Hamsat 23 Oct 16:48:22 16:50:40 15° 65° (ENE) 16:52:57 145.90 MHz
TMSAT-1 23 Oct 16:50:06 16:51:32 11° 272° (W) 16:53:00 436.925 FM
Saudisat 1A 23 Oct 16:54:41 16:59:07 69° 56° (NE) 17:03:30 436.775 MHz
UOSAT-12 23 Oct 16:56:00 16:59:11 18° 319° (NW) 17:02:24 437.025 FM, 437.400 FM
JAS-2 23 Oct 17:11:41 17:17:19 51° 69° (ENE) 17:23:43 435.800 - 435.900 CW/SSB, 435.910 FM
ISS 23 Oct 17:16:52 17:18:34 13° 5° (N) 17:20:16 145.800 FM
OPAL 23 Oct 17:49:00 17:53:39 39° 100° (E) 17:58:16 ?
Uosat F 23 Oct 17:53:06 17:56:15 17° 268° (W) 17:59:25 435.120 FM
AO-7 23 Oct 18:21:05 18:25:42 16° 270° (W) 18:30:21 29.400 - 29.500 MHz
Hamsat 23 Oct 18:22:07 18:26:12 49° 261° (W) 18:30:17 145.90 MHz
KITSAT 1 23 Oct 18:23:53 18:26:09 11° 13° (NNE) 18:28:25 435.175 FM
Saudisat 1A 23 Oct 18:36:22 18:38:05 12° 252° (WSW) 18:39:48 436.775 MHz
HO-68 23 Oct 18:50:03 18:51:15 11° 48° (NE) 18:52:28 435.675 MHz FM
ISS 23 Oct 18:53:10 18:56:07 28° 25° (NNE) 18:59:03 145.800 FM
JAS-2 23 Oct 18:58:08 19:02:49 24° 270° (W) 19:07:58 435.800 - 435.900 CW/SSB, 435.910 FM
SO-67 23 Oct 19:00:08 19:03:28 51° 75° (ENE) 19:06:49 435.3500 MHz FM
OPAL 23 Oct 19:28:21 19:32:19 24° 297° (WNW) 19:36:14 ?
STRAND 1 23 Oct 19:30:55 19:35:56 49° 100° (E) 19:40:54 ?
AO-40 23 Oct 19:57:56 23:15:32 27° 123° (ESE) 00:37:40 Beacon 2401.320
KITSAT 1 23 Oct 20:18:03 20:24:53 29° 41° (NE) 20:31:41 435.175 FM
ISS 23 Oct 20:29:43 20:32:54 42° 222° (SW) 20:36:04 145.800 FM
HO-68 23 Oct 20:30:29 20:37:23 55° 68° (ENE) 20:44:21 435.675 MHz FM
SO-50 23 Oct 20:34:35 20:36:58 14° 37° (NE) 20:39:22 436.795 FM
Oscar 11 23 Oct 20:34:53 20:36:41 12° 63° (ENE) 20:38:29 145.825 FM, Beacon 2401.500 USB
STRAND 1 23 Oct 21:10:58 21:14:44 21° 296° (WNW) 21:18:30 ?
ZACube-1 23 Oct 21:19:11 21:22:09 17° 65° (ENE) 21:25:06 437.345 MHz
UKube-1 23 Oct 21:25:24 21:29:36 49° 72° (ENE) 21:33:49 145.840 MHz, 145.915 MHz
FUNcube-1 23 Oct 22:02:33 22:06:57 47° 73° (ENE) 22:11:18 145.950 - 145.970 MHz USB
UOSAT-12 23 Oct 22:06:16 22:07:20 11° 34° (NNE) 22:08:24 437.025 FM, 437.400 FM
Oscar 11 23 Oct 22:08:02 22:12:19 63° 259° (W) 22:16:38 145.825 FM, Beacon 2401.500 USB
KITSAT 1 23 Oct 22:13:01 22:21:05 77° 243° (WSW) 22:29:07 435.175 FM
SO-50 23 Oct 22:13:30 22:18:21 75° 56° (ENE) 22:23:14 436.795 FM
RS-15 23 Oct 22:14:20 22:24:57 57° 113° (ESE) 22:35:27 29.354 - 29.394 USB, Beacon 29.352 USB
HO-68 23 Oct 22:19:24 22:25:23 28° 265° (W) 22:31:25 435.675 MHz FM
ZACube-1 23 Oct 22:53:43 22:58:10 49° 261° (W) 23:02:35 437.345 MHz
UKube-1 23 Oct 23:03:40 23:06:04 14° 268° (W) 23:08:28 145.840 MHz, 145.915 MHz
FUNcube-1 23 Oct 23:40:34 23:43:31 17° 268° (W) 23:46:28 145.950 - 145.970 MHz USB
UOSAT-12 23 Oct 23:43:52 23:48:32 56° 54° (NE) 23:53:06 437.025 FM, 437.400 FM
MaSat-1 23 Oct 23:54:25 23:58:28 47° 112° (ESE) 00:02:11 437.345 MHz
SO-50 23 Oct 23:56:02 23:58:19 13° 252° (WSW) 00:00:36 436.795 FM
KITSAT 1 24 Oct 00:11:28 00:15:07 14° 261° (W) 00:18:46 435.175 FM
RS-15 24 Oct 00:27:12 00:37:33 46° 316° (NW) 00:47:59 29.354 - 29.394 USB, Beacon 29.352 USB
UOSAT-12 24 Oct 01:25:14 01:28:12 17° 251° (WSW) 01:31:08 437.025 FM, 437.400 FM
MaSat-1 24 Oct 01:31:49 01:34:17 16° 305° (NW) 01:36:38 437.345 MHz
JAS-1B 24 Oct 01:34:08 01:39:35 25° 95° (E) 01:45:44 435.800 - 435.900 CW/SSB
Oscar 19 24 Oct 01:47:35 01:51:57 28° 95° (E) 01:56:17 437.125 CW, 437.150 USB
AO-27 24 Oct 02:03:35 02:06:47 16° 91° (E) 02:09:57 436.795 MHz FM
Oscar 16 24 Oct 02:32:38 02:37:47 78° 103° (ESE) 02:42:54 437.025 USB, Beacon 2401.1428
AO-Echo 24 Oct 02:36:05 02:41:10 44° 98° (E) 02:46:13 ?
RS-15 24 Oct 02:46:07 02:53:47 21° 349° (NNW) 03:01:33 29.354 - 29.394 USB, Beacon 29.352 USB
Uribyol 2 24 Oct 02:50:26 02:55:29 47° 99° (E) 03:00:28 436.500 FM
PCSat 24 Oct 02:55:45 02:58:21 14° 103° (ESE) 03:00:58 145.825 MHz
ITAMSAT 1 24 Oct 02:56:10 03:01:16 50° 100° (E) 03:06:18 435.822 SSB
Gurwin Techsat 1B 24 Oct 03:10:11 03:15:04 36° 97° (E) 03:19:56 435.225 FM
TMSAT-1 24 Oct 03:22:07 03:26:57 35° 97° (E) 03:31:45 436.925 FM
JAS-1B 24 Oct 03:23:55 03:30:23 61° 288° (WNW) 03:38:05 435.800 - 435.900 CW/SSB
Oscar 19 24 Oct 03:26:42 03:31:18 34° 292° (WNW) 03:35:52 437.125 CW, 437.150 USB
AO-27 24 Oct 03:41:32 03:46:42 61° 288° (WNW) 03:51:49 436.795 MHz FM
Sapphire 24 Oct 04:13:03 04:18:23 63° 115° (ESE) 04:23:45 437.095 MHz 1200 baud AX-25 AFSK
Oscar 16 24 Oct 04:13:59 04:16:28 14° 300° (WNW) 04:18:56 437.025 USB, Beacon 2401.1428
AO-Echo 24 Oct 04:15:26 04:19:38 24° 295° (WNW) 04:23:49 ?
Uosat F 24 Oct 04:21:20 04:24:39 17° 92° (E) 04:27:58 435.120 FM
AO-7 24 Oct 04:25:51 04:33:12 34° 97° (E) 04:40:30 29.400 - 29.500 MHz
Uribyol 2 24 Oct 04:30:41 04:34:36 22° 296° (WNW) 04:38:30 436.500 FM
PCSat 24 Oct 04:35:38 04:41:02 78° 300° (WNW) 04:46:30 145.825 MHz
ITAMSAT 1 24 Oct 04:36:33 04:40:22 21° 297° (WNW) 04:44:10 435.822 SSB
Gurwin Techsat 1B 24 Oct 04:50:23 04:54:53 29° 294° (WNW) 04:59:22 435.225 FM
TMSAT-1 24 Oct 05:02:12 05:06:45 30° 293° (WNW) 05:11:16 436.925 FM
RS-15 24 Oct 05:02:46 05:11:34 26° 25° (NNE) 05:20:33 29.354 - 29.394 USB, Beacon 29.352 USB
OPAL 24 Oct 05:03:26 05:08:34 72° 72° (ENE) 05:13:39 ?
Sapphire 24 Oct 05:58:09 06:02:15 22° 314° (NW) 06:06:23 437.095 MHz 1200 baud AX-25 AFSK
Uosat F 24 Oct 05:58:49 06:03:45 53° 288° (WNW) 06:08:38 435.120 FM
JAS-2 24 Oct 06:04:53 06:12:29 54° 99° (E) 06:20:04 435.800 - 435.900 CW/SSB, 435.910 FM
Hamsat 24 Oct 06:08:08 06:11:45 28° 96° (E) 06:15:22 145.90 MHz
AO-7 24 Oct 06:18:13 06:26:14 55° 295° (WNW) 06:34:16 29.400 - 29.500 MHz
PCSat 24 Oct 06:22:27 06:25:22 15° 320° (NW) 06:28:18 145.825 MHz
OPAL 24 Oct 06:45:26 06:47:54 13° 267° (W) 06:50:22 ?
STRAND 1 24 Oct 06:46:30 06:51:35 70° 74° (ENE) 06:56:43 ?
Saudisat 1A 24 Oct 07:02:05 07:05:07 19° 111° (ESE) 07:08:10 436.775 MHz
RS-15 24 Oct 07:15:19 07:26:28 69° 53° (NE) 07:38:04 29.354 - 29.394 USB, Beacon 29.352 USB
Hamsat 24 Oct 07:44:13 07:47:35 24° 291° (WNW) 07:50:58 145.90 MHz
